Year,Month,Day,Hour,Minute,Value (Times are PST for temperature in C)
2007,07,12,00,00,23.20
2007,07,12,00,01,23.20
2007,07,12,00,02,23.30
2007,07,12,00,03,23.40
2007,07,12,00,04,23.50
2007,07,12,00,05,23.60
2007,07,12,00,06,23.70
2007,07,12,00,07,23.70
2007,07,12,00,08,23.70
2007,07,12,00,09,23.70
2007,07,12,00,10,23.60
2007,07,12,00,11,23.50
2007,07,12,00,12,23.40
2007,07,12,00,13,23.30
2007,07,12,00,14,23.20
2007,07,12,00,15,23.20
2007,07,12,00,16,23.10
2007,07,12,00,17,23.00
2007,07,12,00,18,22.90
2007,07,12,00,19,22.80
2007,07,12,00,20,22.80
2007,07,12,00,21,22.70
2007,07,12,00,22,22.60
2007,07,12,00,23,22.50
2007,07,12,00,24,22.40
2007,07,12,00,25,22.30
2007,07,12,00,26,22.30
2007,07,12,00,27,22.20
2007,07,12,00,28,22.20
2007,07,12,00,29,22.20
2007,07,12,00,30,22.20
2007,07,12,00,31,22.20
2007,07,12,00,32,22.30
2007,07,12,00,33,22.40
2007,07,12,00,34,22.40
2007,07,12,00,35,22.50
2007,07,12,00,36,22.60
2007,07,12,00,37,22.60
2007,07,12,00,38,22.60
2007,07,12,00,39,22.70
2007,07,12,00,40,22.70
2007,07,12,00,41,22.70
2007,07,12,00,42,22.70
2007,07,12,00,43,22.80
2007,07,12,00,44,22.80
2007,07,12,00,45,22.80
2007,07,12,00,46,22.80
2007,07,12,00,47,22.80
2007,07,12,00,48,22.80
2007,07,12,00,49,22.80
2007,07,12,00,50,22.70
2007,07,12,00,51,22.70
2007,07,12,00,52,22.70
2007,07,12,00,53,22.60
2007,07,12,00,54,22.60
2007,07,12,00,55,22.60
2007,07,12,00,56,22.50
2007,07,12,00,57,22.40
2007,07,12,00,58,22.30
2007,07,12,00,59,22.30
2007,07,12,01,00,22.20
2007,07,12,01,01,22.20
2007,07,12,01,02,22.20
2007,07,12,01,03,22.10
2007,07,12,01,04,22.10
2007,07,12,01,05,22.10
2007,07,12,01,06,22.10
2007,07,12,01,07,22.10
2007,07,12,01,08,22.00
2007,07,12,01,09,22.00
2007,07,12,01,10,21.90
2007,07,12,01,11,21.90
2007,07,12,01,12,21.90
2007,07,12,01,13,21.90
2007,07,12,01,14,21.90
2007,07,12,01,15,21.90
2007,07,12,01,16,21.90
2007,07,12,01,17,21.90
2007,07,12,01,18,21.90
2007,07,12,01,19,21.90
2007,07,12,01,20,21.90
2007,07,12,01,21,21.90
2007,07,12,01,22,21.90
2007,07,12,01,23,21.90
2007,07,12,01,24,21.90
2007,07,12,01,25,21.90
2007,07,12,01,26,21.90
2007,07,12,01,27,21.80
2007,07,12,01,28,21.80
2007,07,12,01,29,21.80
2007,07,12,01,30,21.70
2007,07,12,01,31,21.70
2007,07,12,01,32,21.70
2007,07,12,01,33,21.70
2007,07,12,01,34,21.60
2007,07,12,01,35,21.60
2007,07,12,01,36,21.60
2007,07,12,01,37,21.60
2007,07,12,01,38,21.60
2007,07,12,01,39,21.60
2007,07,12,01,40,21.60
2007,07,12,01,41,21.60
2007,07,12,01,42,21.60
2007,07,12,01,43,21.70
2007,07,12,01,44,21.80
2007,07,12,01,45,21.80
2007,07,12,01,46,21.80
2007,07,12,01,47,21.80
2007,07,12,01,48,21.80
2007,07,12,01,49,21.80
2007,07,12,01,50,21.80
2007,07,12,01,51,21.80
2007,07,12,01,52,21.80
2007,07,12,01,53,21.80
2007,07,12,01,54,21.80
2007,07,12,01,55,21.80
2007,07,12,01,56,21.80
2007,07,12,01,57,21.90
2007,07,12,01,58,21.90
2007,07,12,01,59,21.90
2007,07,12,02,00,22.00
2007,07,12,02,01,22.00
2007,07,12,02,02,22.10
2007,07,12,02,03,22.10
2007,07,12,02,04,22.10
2007,07,12,02,05,22.20
2007,07,12,02,06,22.20
2007,07,12,02,07,22.20
2007,07,12,02,08,22.20
2007,07,12,02,09,22.10
2007,07,12,02,10,22.10
2007,07,12,02,11,22.00
2007,07,12,02,12,21.90
2007,07,12,02,13,21.80
2007,07,12,02,14,21.70
2007,07,12,02,15,21.70
2007,07,12,02,16,21.60
2007,07,12,02,17,21.60
2007,07,12,02,18,21.50
2007,07,12,02,19,21.50
2007,07,12,02,20,21.40
2007,07,12,02,21,21.30
2007,07,12,02,22,21.20
2007,07,12,02,23,21.00
2007,07,12,02,24,20.90
2007,07,12,02,25,20.80
2007,07,12,02,26,20.90
2007,07,12,02,27,20.90
2007,07,12,02,28,20.80
2007,07,12,02,29,20.80
2007,07,12,02,30,20.70
2007,07,12,02,31,20.70
2007,07,12,02,32,20.70
2007,07,12,02,33,20.70
2007,07,12,02,34,20.70
2007,07,12,02,35,20.70
2007,07,12,02,36,20.70
2007,07,12,02,37,20.70
2007,07,12,02,38,20.60
2007,07,12,02,39,20.60
2007,07,12,02,40,20.60
2007,07,12,02,41,20.60
2007,07,12,02,42,20.50
2007,07,12,02,43,20.50
2007,07,12,02,44,20.40
2007,07,12,02,45,20.40
2007,07,12,02,46,20.30
2007,07,12,02,47,20.30
2007,07,12,02,48,20.30
2007,07,12,02,49,20.20
2007,07,12,02,50,20.10
2007,07,12,02,51,20.10
2007,07,12,02,52,20.10
2007,07,12,02,53,20.00
2007,07,12,02,54,19.90
2007,07,12,02,55,19.80
2007,07,12,02,56,19.80
2007,07,12,02,57,19.70
2007,07,12,02,58,19.60
2007,07,12,02,59,19.60
2007,07,12,03,00,19.50
2007,07,12,03,01,19.50
2007,07,12,03,02,19.40
2007,07,12,03,03,19.40
2007,07,12,03,04,19.40
2007,07,12,03,05,19.30
2007,07,12,03,06,19.30
2007,07,12,03,07,19.30
2007,07,12,03,08,19.30
2007,07,12,03,09,19.30
2007,07,12,03,10,19.30
2007,07,12,03,11,19.30
2007,07,12,03,12,19.30
2007,07,12,03,13,19.30
2007,07,12,03,14,19.30
2007,07,12,03,15,19.30
2007,07,12,03,16,19.30
2007,07,12,03,17,19.40
2007,07,12,03,18,19.40
2007,07,12,03,19,19.50
2007,07,12,03,20,19.50
2007,07,12,03,21,19.60
2007,07,12,03,22,19.70
2007,07,12,03,23,19.80
2007,07,12,03,24,19.90
2007,07,12,03,25,20.00
2007,07,12,03,26,20.10
2007,07,12,03,27,20.20
2007,07,12,03,28,20.30
2007,07,12,03,29,20.30
2007,07,12,03,30,20.40
2007,07,12,03,31,20.40
2007,07,12,03,32,20.30
2007,07,12,03,33,20.20
2007,07,12,03,34,20.10
2007,07,12,03,35,19.90
2007,07,12,03,36,19.80
2007,07,12,03,37,19.70
2007,07,12,03,38,19.70
2007,07,12,03,39,19.60
2007,07,12,03,40,19.50
2007,07,12,03,41,19.40
2007,07,12,03,42,19.40
2007,07,12,03,43,19.40
2007,07,12,03,44,19.40
2007,07,12,03,45,19.30
2007,07,12,03,46,19.30
2007,07,12,03,47,19.30
2007,07,12,03,48,19.20
2007,07,12,03,49,19.20
2007,07,12,03,50,19.20
2007,07,12,03,51,19.10
2007,07,12,03,52,19.00
2007,07,12,03,53,18.90
2007,07,12,03,54,18.90
2007,07,12,03,55,18.80
2007,07,12,03,56,18.70
2007,07,12,03,57,18.70
2007,07,12,03,58,18.60
2007,07,12,03,59,18.50
2007,07,12,04,00,18.40
2007,07,12,04,01,18.40
2007,07,12,04,02,18.30
2007,07,12,04,03,18.30
2007,07,12,04,04,18.20
2007,07,12,04,05,18.10
2007,07,12,04,06,18.10
2007,07,12,04,07,18.00
2007,07,12,04,08,18.00
2007,07,12,04,09,17.90
2007,07,12,04,10,17.90
2007,07,12,04,11,17.90
2007,07,12,04,12,17.90
2007,07,12,04,13,17.90
2007,07,12,04,14,17.90
2007,07,12,04,15,17.80
2007,07,12,04,16,17.80
2007,07,12,04,17,17.80
2007,07,12,04,18,17.70
2007,07,12,04,19,17.70
2007,07,12,04,20,17.70
2007,07,12,04,21,17.70
2007,07,12,04,22,17.70
2007,07,12,04,23,17.70
2007,07,12,04,24,17.70
2007,07,12,04,25,17.70
2007,07,12,04,26,17.60
2007,07,12,04,27,17.50
2007,07,12,04,28,17.30
2007,07,12,04,29,17.20
2007,07,12,04,30,17.20
2007,07,12,04,31,17.10
2007,07,12,04,32,17.00
2007,07,12,04,33,16.90
2007,07,12,04,34,16.90
2007,07,12,04,35,16.80
2007,07,12,04,36,16.70
2007,07,12,04,37,16.60
2007,07,12,04,38,16.60
2007,07,12,04,39,16.50
2007,07,12,04,40,16.40
2007,07,12,04,41,16.40
2007,07,12,04,42,16.40
2007,07,12,04,43,16.30
2007,07,12,04,44,16.30
2007,07,12,04,45,16.30
2007,07,12,04,46,16.20
2007,07,12,04,47,16.20
2007,07,12,04,48,16.20
2007,07,12,04,49,16.10
2007,07,12,04,50,16.00
2007,07,12,04,51,16.00
2007,07,12,04,52,15.90
2007,07,12,04,53,15.90
2007,07,12,04,54,15.90
2007,07,12,04,55,15.80
2007,07,12,04,56,15.80
2007,07,12,04,57,15.80
2007,07,12,04,58,15.80
2007,07,12,04,59,15.70
2007,07,12,05,00,15.70
2007,07,12,05,01,15.70
2007,07,12,05,02,15.60
2007,07,12,05,03,15.60
2007,07,12,05,04,15.60
2007,07,12,05,05,15.60
2007,07,12,05,06,15.60
2007,07,12,05,07,15.50
2007,07,12,05,08,15.50
2007,07,12,05,09,15.40
2007,07,12,05,10,15.40
2007,07,12,05,11,15.40
2007,07,12,05,12,15.30
2007,07,12,05,13,15.30
2007,07,12,05,14,15.30
2007,07,12,05,15,15.30
2007,07,12,05,16,15.20
2007,07,12,05,17,15.10
2007,07,12,05,18,15.00
2007,07,12,05,19,15.00
2007,07,12,05,20,15.00
2007,07,12,05,21,15.00
2007,07,12,05,22,15.00
2007,07,12,05,23,15.00
2007,07,12,05,24,15.00
2007,07,12,05,25,14.90
2007,07,12,05,26,14.90
2007,07,12,05,27,14.90
2007,07,12,05,28,14.90
2007,07,12,05,29,14.90
2007,07,12,05,30,14.90
2007,07,12,05,31,15.00
2007,07,12,05,32,15.00
2007,07,12,05,33,15.00
2007,07,12,05,34,14.90
2007,07,12,05,35,14.90
2007,07,12,05,36,14.90
2007,07,12,05,37,14.90
2007,07,12,05,38,14.90
2007,07,12,05,39,14.90
2007,07,12,05,40,14.80
2007,07,12,05,41,14.80
2007,07,12,05,42,14.80
2007,07,12,05,43,14.80
2007,07,12,05,44,14.80
2007,07,12,05,45,14.80
2007,07,12,05,46,14.80
2007,07,12,05,47,14.80
2007,07,12,05,48,14.80
2007,07,12,05,49,14.80
2007,07,12,05,50,14.80
2007,07,12,05,51,14.90
2007,07,12,05,52,15.00
2007,07,12,05,53,15.00
2007,07,12,05,54,15.00
2007,07,12,05,55,15.00
2007,07,12,05,56,15.00
2007,07,12,05,57,15.00
2007,07,12,05,58,15.00
2007,07,12,05,59,15.00
2007,07,12,06,00,15.00
2007,07,12,06,01,15.00
2007,07,12,06,02,15.00
2007,07,12,06,03,15.00
2007,07,12,06,04,15.00
2007,07,12,06,05,15.00
2007,07,12,06,06,15.00
2007,07,12,06,07,15.00
2007,07,12,06,08,15.00
2007,07,12,06,09,15.00
2007,07,12,06,10,15.00
2007,07,12,06,11,15.00
2007,07,12,06,12,15.00
2007,07,12,06,13,14.90
2007,07,12,06,14,14.90
2007,07,12,06,15,14.90
2007,07,12,06,16,14.80
2007,07,12,06,17,14.80
2007,07,12,06,18,14.80
2007,07,12,06,19,14.80
2007,07,12,06,20,14.80
2007,07,12,06,21,14.90
2007,07,12,06,22,14.90
2007,07,12,06,23,14.90
2007,07,12,06,24,15.00
2007,07,12,06,25,15.00
2007,07,12,06,26,15.00
2007,07,12,06,27,15.00
2007,07,12,06,28,15.00
2007,07,12,06,29,15.00
2007,07,12,06,30,15.10
2007,07,12,06,31,15.10
2007,07,12,06,32,15.10
2007,07,12,06,33,15.10
2007,07,12,06,34,15.20
2007,07,12,06,35,15.20
2007,07,12,06,36,15.20
2007,07,12,06,37,15.20
2007,07,12,06,38,15.20
2007,07,12,06,39,15.20
2007,07,12,06,40,15.20
2007,07,12,06,41,15.30
2007,07,12,06,42,15.30
2007,07,12,06,43,15.30
2007,07,12,06,44,15.30
2007,07,12,06,45,15.30
2007,07,12,06,46,15.40
2007,07,12,06,47,15.40
2007,07,12,06,48,15.50
2007,07,12,06,49,15.50
2007,07,12,06,50,15.60
2007,07,12,06,51,15.60
2007,07,12,06,52,15.70
2007,07,12,06,53,15.70
2007,07,12,06,54,15.70
2007,07,12,06,55,15.80
2007,07,12,06,56,15.90
2007,07,12,06,57,15.90
2007,07,12,06,58,16.00
2007,07,12,06,59,16.00
2007,07,12,07,00,16.10
2007,07,12,07,01,16.20
2007,07,12,07,02,16.20
2007,07,12,07,03,16.30
2007,07,12,07,04,16.40
2007,07,12,07,05,16.50
2007,07,12,07,06,16.60
2007,07,12,07,07,16.60
2007,07,12,07,08,16.70
2007,07,12,07,09,16.80
2007,07,12,07,10,16.90
2007,07,12,07,11,17.00
2007,07,12,07,12,17.10
2007,07,12,07,13,17.10
2007,07,12,07,14,17.30
2007,07,12,07,15,17.40
2007,07,12,07,16,17.50
2007,07,12,07,17,17.60
2007,07,12,07,18,17.70
2007,07,12,07,19,17.80
2007,07,12,07,20,17.90
2007,07,12,07,21,18.00
2007,07,12,07,22,18.10
2007,07,12,07,23,18.20
2007,07,12,07,24,18.30
2007,07,12,07,25,18.40
2007,07,12,07,26,18.50
2007,07,12,07,27,18.50
2007,07,12,07,28,18.60
2007,07,12,07,29,18.70
2007,07,12,07,30,18.80
2007,07,12,07,31,18.80
2007,07,12,07,32,18.90
2007,07,12,07,33,18.90
2007,07,12,07,34,19.00
2007,07,12,07,35,19.00
2007,07,12,07,36,19.10
2007,07,12,07,37,19.20
2007,07,12,07,38,19.30
2007,07,12,07,39,19.40
2007,07,12,07,40,19.40
2007,07,12,07,41,19.40
2007,07,12,07,42,19.50
2007,07,12,07,43,19.50
2007,07,12,07,44,19.60
2007,07,12,07,45,19.70
2007,07,12,07,46,19.70
2007,07,12,07,47,19.70
2007,07,12,07,48,19.70
2007,07,12,07,49,19.70
2007,07,12,07,50,19.70
2007,07,12,07,51,19.70
2007,07,12,07,52,19.80
2007,07,12,07,53,19.80
2007,07,12,07,54,19.80
2007,07,12,07,55,19.80
2007,07,12,07,56,19.80
2007,07,12,07,57,19.70
2007,07,12,07,58,19.70
2007,07,12,07,59,19.70
2007,07,12,08,00,19.80
2007,07,12,08,01,19.80
2007,07,12,08,02,19.80
2007,07,12,08,03,19.80
2007,07,12,08,04,19.80
2007,07,12,08,05,19.90
2007,07,12,08,06,19.90
2007,07,12,08,07,20.00
2007,07,12,08,08,20.00
2007,07,12,08,09,20.10
2007,07,12,08,10,20.10
2007,07,12,08,11,20.10
2007,07,12,08,12,20.10
2007,07,12,08,13,20.10
2007,07,12,08,14,20.20
2007,07,12,08,15,20.20
2007,07,12,08,16,20.30
2007,07,12,08,17,20.30
2007,07,12,08,18,20.40
2007,07,12,08,19,20.50
2007,07,12,08,20,20.50
2007,07,12,08,21,20.60
2007,07,12,08,22,20.50
2007,07,12,08,23,20.50
2007,07,12,08,24,20.60
2007,07,12,08,25,20.70
2007,07,12,08,26,20.70
2007,07,12,08,27,20.60
2007,07,12,08,28,20.50
2007,07,12,08,29,20.40
2007,07,12,08,30,20.30
2007,07,12,08,31,20.30
2007,07,12,08,32,20.20
2007,07,12,08,33,20.20
2007,07,12,08,34,20.30
2007,07,12,08,35,20.50
2007,07,12,08,36,20.60
2007,07,12,08,37,20.70
2007,07,12,08,38,20.80
2007,07,12,08,39,20.80
2007,07,12,08,40,20.70
2007,07,12,08,41,20.70
2007,07,12,08,42,20.60
2007,07,12,08,43,20.60
2007,07,12,08,44,20.60
2007,07,12,08,45,20.70
2007,07,12,08,46,20.70
2007,07,12,08,47,20.80
2007,07,12,08,48,20.80
2007,07,12,08,49,20.80
2007,07,12,08,50,20.70
2007,07,12,08,51,20.70
2007,07,12,08,52,20.70
2007,07,12,08,53,20.70
2007,07,12,08,54,20.70
2007,07,12,08,55,20.70
2007,07,12,08,56,20.70
2007,07,12,08,57,20.70
2007,07,12,08,58,20.70
2007,07,12,08,59,20.70
2007,07,12,09,00,20.80
2007,07,12,09,01,20.80
2007,07,12,09,02,20.80
2007,07,12,09,03,20.70
2007,07,12,09,04,20.60
2007,07,12,09,05,20.50
2007,07,12,09,06,20.50
2007,07,12,09,07,20.40
2007,07,12,09,08,20.30
2007,07,12,09,09,20.30
2007,07,12,09,10,20.30
2007,07,12,09,11,20.30
2007,07,12,09,12,20.30
2007,07,12,09,13,20.30
2007,07,12,09,14,20.40
2007,07,12,09,15,20.40
2007,07,12,09,16,20.40
2007,07,12,09,17,20.30
2007,07,12,09,18,20.20
2007,07,12,09,19,20.10
2007,07,12,09,20,20.00
2007,07,12,09,21,19.90
2007,07,12,09,22,19.90
2007,07,12,09,23,19.90
2007,07,12,09,24,19.90
2007,07,12,09,25,20.00
2007,07,12,09,26,20.10
2007,07,12,09,27,20.10
2007,07,12,09,28,20.20
2007,07,12,09,29,20.30
2007,07,12,09,30,20.40
2007,07,12,09,31,20.50
2007,07,12,09,32,20.60
2007,07,12,09,33,20.70
2007,07,12,09,34,20.90
2007,07,12,09,35,20.90
2007,07,12,09,36,21.00
2007,07,12,09,37,20.90
2007,07,12,09,38,21.00
2007,07,12,09,39,21.00
2007,07,12,09,40,21.10
2007,07,12,09,41,21.20
2007,07,12,09,42,21.20
2007,07,12,09,43,21.30
2007,07,12,09,44,21.30
2007,07,12,09,45,21.30
2007,07,12,09,46,21.30
2007,07,12,09,47,21.30
2007,07,12,09,48,21.30
2007,07,12,09,49,21.30
2007,07,12,09,50,21.40
2007,07,12,09,51,21.50
2007,07,12,09,52,21.50
2007,07,12,09,53,21.60
2007,07,12,09,54,21.70
2007,07,12,09,55,21.70
2007,07,12,09,56,21.60
2007,07,12,09,57,21.60
2007,07,12,09,58,21.70
2007,07,12,09,59,21.70
2007,07,12,10,00,21.70
2007,07,12,10,01,21.80
2007,07,12,10,02,21.70
2007,07,12,10,03,21.70
2007,07,12,10,04,21.60
2007,07,12,10,05,21.70
2007,07,12,10,06,21.70
2007,07,12,10,07,21.70
2007,07,12,10,08,21.70
2007,07,12,10,09,21.70
2007,07,12,10,10,21.70
2007,07,12,10,11,21.70
2007,07,12,10,12,21.70
2007,07,12,10,13,21.80
2007,07,12,10,14,21.80
2007,07,12,10,15,21.80
2007,07,12,10,16,21.80
2007,07,12,10,17,21.70
2007,07,12,10,18,21.70
2007,07,12,10,19,21.70
2007,07,12,10,20,21.70
2007,07,12,10,21,21.80
2007,07,12,10,22,21.90
2007,07,12,10,23,22.10
2007,07,12,10,24,22.10
2007,07,12,10,25,22.10
2007,07,12,10,26,22.00
2007,07,12,10,27,22.00
2007,07,12,10,28,21.80
2007,07,12,10,29,21.80
2007,07,12,10,30,21.70
2007,07,12,10,31,21.70
2007,07,12,10,32,21.70
2007,07,12,10,33,21.70
2007,07,12,10,34,21.70
2007,07,12,10,35,21.60
2007,07,12,10,36,21.60
2007,07,12,10,37,21.70
2007,07,12,10,38,21.70
2007,07,12,10,39,21.80
2007,07,12,10,40,21.80
2007,07,12,10,41,21.90
2007,07,12,10,42,22.00
2007,07,12,10,43,22.10
2007,07,12,10,44,22.20
2007,07,12,10,45,22.30
2007,07,12,10,46,22.40
2007,07,12,10,47,22.50
2007,07,12,10,48,22.60
2007,07,12,10,49,22.70
2007,07,12,10,50,22.80
2007,07,12,10,51,22.80
2007,07,12,10,52,22.90
2007,07,12,10,53,22.90
2007,07,12,10,54,22.90
2007,07,12,10,55,22.90
2007,07,12,10,56,22.80
2007,07,12,10,57,22.80
2007,07,12,10,58,22.80
2007,07,12,10,59,22.80
2007,07,12,11,00,22.90
2007,07,12,11,01,23.00
2007,07,12,11,02,23.10
2007,07,12,11,03,23.30
2007,07,12,11,04,23.40
2007,07,12,11,05,23.50
2007,07,12,11,06,23.50
2007,07,12,11,07,23.60
2007,07,12,11,08,23.60
2007,07,12,11,09,23.50
2007,07,12,11,10,23.60
2007,07,12,11,11,23.60
2007,07,12,11,12,23.60
2007,07,12,11,13,23.60
2007,07,12,11,14,23.60
2007,07,12,11,15,23.70
2007,07,12,11,16,23.80
2007,07,12,11,17,23.90
2007,07,12,11,18,23.90
2007,07,12,11,19,23.90
2007,07,12,11,20,23.90
2007,07,12,11,21,23.80
2007,07,12,11,22,23.70
2007,07,12,11,23,23.70
2007,07,12,11,24,23.70
2007,07,12,11,25,23.70
2007,07,12,11,26,23.70
2007,07,12,11,27,23.70
2007,07,12,11,28,23.70
2007,07,12,11,29,23.70
2007,07,12,11,30,23.70
2007,07,12,11,31,23.70
2007,07,12,11,32,23.80
2007,07,12,11,33,24.00
2007,07,12,11,34,24.10
2007,07,12,11,35,24.20
2007,07,12,11,36,24.20
2007,07,12,11,37,24.30
2007,07,12,11,38,24.30
2007,07,12,11,39,24.30
2007,07,12,11,40,24.30
2007,07,12,11,41,24.40
2007,07,12,11,42,24.50
2007,07,12,11,43,24.50
2007,07,12,11,44,24.60
2007,07,12,11,45,24.60
2007,07,12,11,46,24.60
2007,07,12,11,47,24.50
2007,07,12,11,48,24.30
2007,07,12,11,49,24.30
2007,07,12,11,50,24.40
2007,07,12,11,51,24.40
2007,07,12,11,52,24.40
2007,07,12,11,53,24.30
2007,07,12,11,54,24.30
2007,07,12,11,55,24.10
2007,07,12,11,56,23.80
2007,07,12,11,57,23.70
2007,07,12,11,58,23.60
2007,07,12,11,59,23.30
2007,07,12,12,00,23.20
2007,07,12,12,01,23.20
2007,07,12,12,02,23.30
2007,07,12,12,03,23.30
2007,07,12,12,04,23.40
2007,07,12,12,05,23.40
2007,07,12,12,06,23.40
2007,07,12,12,07,23.30
2007,07,12,12,08,23.20
2007,07,12,12,09,23.10
2007,07,12,12,10,22.90
2007,07,12,12,11,22.90
2007,07,12,12,12,22.80
2007,07,12,12,13,22.80
2007,07,12,12,14,22.80
2007,07,12,12,15,22.80
2007,07,12,12,16,22.70
2007,07,12,12,17,22.70
2007,07,12,12,18,22.70
2007,07,12,12,19,22.70
2007,07,12,12,20,22.70
2007,07,12,12,21,22.80
2007,07,12,12,22,22.90
2007,07,12,12,23,23.10
2007,07,12,12,24,23.30
2007,07,12,12,25,23.40
2007,07,12,12,26,23.40
2007,07,12,12,27,23.30
2007,07,12,12,28,23.20
2007,07,12,12,29,23.00
2007,07,12,12,30,22.90
2007,07,12,12,31,22.80
2007,07,12,12,32,22.90
2007,07,12,12,33,23.00
2007,07,12,12,34,23.10
2007,07,12,12,35,23.30
2007,07,12,12,36,23.40
2007,07,12,12,37,23.50
2007,07,12,12,38,23.60
2007,07,12,12,39,23.70
2007,07,12,12,40,23.80
2007,07,12,12,41,23.80
2007,07,12,12,42,23.80
2007,07,12,12,43,23.70
2007,07,12,12,44,23.70
2007,07,12,12,45,23.70
2007,07,12,12,46,23.60
2007,07,12,12,47,23.60
2007,07,12,12,48,23.60
2007,07,12,12,49,23.60
2007,07,12,12,50,23.60
2007,07,12,12,51,23.60
2007,07,12,12,52,23.60
2007,07,12,12,53,23.60
2007,07,12,12,54,23.50
2007,07,12,12,55,23.50
2007,07,12,12,56,23.50
2007,07,12,12,57,23.50
2007,07,12,12,58,23.60
2007,07,12,12,59,23.70
2007,07,12,13,00,23.80
2007,07,12,13,01,23.80
2007,07,12,13,02,23.90
2007,07,12,13,03,24.00
2007,07,12,13,04,24.10
2007,07,12,13,05,24.20
2007,07,12,13,06,24.20
2007,07,12,13,07,24.20
2007,07,12,13,08,24.20
2007,07,12,13,09,24.10
2007,07,12,13,10,24.10
2007,07,12,13,11,24.00
2007,07,12,13,12,23.90
2007,07,12,13,13,24.00
2007,07,12,13,14,24.00
2007,07,12,13,15,24.10
2007,07,12,13,16,24.20
2007,07,12,13,17,24.30
2007,07,12,13,18,24.30
2007,07,12,13,19,24.30
2007,07,12,13,20,24.30
2007,07,12,13,21,24.40
2007,07,12,13,22,24.50
2007,07,12,13,23,24.60
2007,07,12,13,24,24.60
2007,07,12,13,25,24.70
2007,07,12,13,26,24.80
2007,07,12,13,27,24.90
2007,07,12,13,28,24.90
2007,07,12,13,29,24.90
2007,07,12,13,30,24.80
2007,07,12,13,31,24.60
2007,07,12,13,32,24.50
2007,07,12,13,33,24.20
2007,07,12,13,34,24.00
2007,07,12,13,35,23.80
2007,07,12,13,36,23.70
2007,07,12,13,37,23.60
2007,07,12,13,38,23.40
2007,07,12,13,39,23.30
2007,07,12,13,40,23.30
2007,07,12,13,41,23.20
2007,07,12,13,42,23.10
2007,07,12,13,43,23.10
2007,07,12,13,44,23.10
2007,07,12,13,45,23.20
2007,07,12,13,46,23.20
2007,07,12,13,47,23.20
2007,07,12,13,48,23.20
2007,07,12,13,49,23.20
2007,07,12,13,50,23.20
2007,07,12,13,51,23.10
2007,07,12,13,52,23.10
2007,07,12,13,53,23.10
2007,07,12,13,54,23.10
2007,07,12,13,55,23.20
2007,07,12,13,56,23.20
2007,07,12,13,57,23.20
2007,07,12,13,58,23.20
2007,07,12,13,59,23.20
2007,07,12,14,00,23.30
2007,07,12,14,01,23.30
2007,07,12,14,02,23.40
2007,07,12,14,03,23.40
2007,07,12,14,04,23.40
2007,07,12,14,05,23.40
2007,07,12,14,06,23.50
2007,07,12,14,07,23.50
2007,07,12,14,08,23.60
2007,07,12,14,09,23.70
2007,07,12,14,10,23.80
2007,07,12,14,11,23.80
2007,07,12,14,12,23.90
2007,07,12,14,13,24.00
2007,07,12,14,14,24.10
2007,07,12,14,15,24.20
2007,07,12,14,16,24.30
2007,07,12,14,17,24.30
2007,07,12,14,18,24.40
2007,07,12,14,19,24.40
2007,07,12,14,20,24.40
2007,07,12,14,21,24.40
2007,07,12,14,22,24.30
2007,07,12,14,23,24.30
2007,07,12,14,24,24.30
2007,07,12,14,25,24.30
2007,07,12,14,26,24.30
2007,07,12,14,27,24.30
2007,07,12,14,28,24.30
2007,07,12,14,29,24.30
2007,07,12,14,30,24.30
2007,07,12,14,31,24.30
2007,07,12,14,32,24.30
2007,07,12,14,33,24.40
2007,07,12,14,34,24.30
2007,07,12,14,35,24.30
2007,07,12,14,36,24.40
2007,07,12,14,37,24.40
2007,07,12,14,38,24.40
2007,07,12,14,39,24.40
2007,07,12,14,40,24.40
2007,07,12,14,41,24.40
2007,07,12,14,42,24.40
2007,07,12,14,43,24.40
2007,07,12,14,44,24.40
2007,07,12,14,45,24.40
2007,07,12,14,46,24.30
2007,07,12,14,47,24.30
2007,07,12,14,48,24.20
2007,07,12,14,49,24.10
2007,07,12,14,50,24.00
2007,07,12,14,51,23.90
2007,07,12,14,52,23.80
2007,07,12,14,53,23.80
2007,07,12,14,54,23.70
2007,07,12,14,55,23.60
2007,07,12,14,56,23.50
2007,07,12,14,57,23.40
2007,07,12,14,58,23.40
2007,07,12,14,59,23.40
2007,07,12,15,00,23.40
2007,07,12,15,01,23.40
2007,07,12,15,02,23.40
2007,07,12,15,03,23.50
2007,07,12,15,04,23.50
2007,07,12,15,05,23.60
2007,07,12,15,06,23.60
2007,07,12,15,07,23.60
2007,07,12,15,08,23.70
2007,07,12,15,09,23.80
2007,07,12,15,10,23.80
2007,07,12,15,11,23.80
2007,07,12,15,12,23.80
2007,07,12,15,13,23.70
2007,07,12,15,14,23.70
2007,07,12,15,15,23.60
2007,07,12,15,16,23.60
2007,07,12,15,17,23.50
2007,07,12,15,18,23.50
2007,07,12,15,19,23.60
2007,07,12,15,20,23.60
2007,07,12,15,21,23.70
2007,07,12,15,22,23.70
2007,07,12,15,23,23.70
2007,07,12,15,24,23.70
2007,07,12,15,25,23.60
2007,07,12,15,26,23.50
2007,07,12,15,27,23.40
2007,07,12,15,28,23.30
2007,07,12,15,29,23.40
2007,07,12,15,30,23.40
2007,07,12,15,31,23.40
2007,07,12,15,32,23.40
2007,07,12,15,33,23.50
2007,07,12,15,34,23.60
2007,07,12,15,35,23.60
2007,07,12,15,36,23.70
2007,07,12,15,37,23.80
2007,07,12,15,38,23.90
2007,07,12,15,39,23.90
2007,07,12,15,40,24.00
2007,07,12,15,41,24.10
2007,07,12,15,42,24.10
2007,07,12,15,43,24.20
2007,07,12,15,44,24.20
2007,07,12,15,45,24.10
2007,07,12,15,46,24.10
2007,07,12,15,47,24.10
2007,07,12,15,48,24.10
2007,07,12,15,49,24.10
2007,07,12,15,50,24.10
2007,07,12,15,51,24.10
2007,07,12,15,52,24.10
2007,07,12,15,53,24.10
2007,07,12,15,54,24.20
2007,07,12,15,55,24.20
2007,07,12,15,56,24.30
2007,07,12,15,57,24.30
2007,07,12,15,58,24.30
2007,07,12,15,59,24.40
2007,07,12,16,00,24.50
2007,07,12,16,01,24.60
2007,07,12,16,02,24.60
2007,07,12,16,03,24.60
2007,07,12,16,04,24.70
2007,07,12,16,05,24.60
2007,07,12,16,06,24.60
2007,07,12,16,07,24.50
2007,07,12,16,08,24.30
2007,07,12,16,09,24.10
2007,07,12,16,10,23.90
2007,07,12,16,11,23.70
2007,07,12,16,12,23.50
2007,07,12,16,13,23.30
2007,07,12,16,14,23.10
2007,07,12,16,15,23.00
2007,07,12,16,16,22.90
2007,07,12,16,17,22.80
2007,07,12,16,18,22.80
2007,07,12,16,19,22.80
2007,07,12,16,20,22.80
2007,07,12,16,21,22.80
2007,07,12,16,22,22.90
2007,07,12,16,23,23.00
2007,07,12,16,24,23.10
2007,07,12,16,25,23.20
2007,07,12,16,26,23.30
2007,07,12,16,27,23.40
2007,07,12,16,28,23.50
2007,07,12,16,29,23.70
2007,07,12,16,30,23.70
2007,07,12,16,31,23.80
2007,07,12,16,32,23.80
2007,07,12,16,33,23.90
2007,07,12,16,34,23.90
2007,07,12,16,35,23.80
2007,07,12,16,36,23.80
2007,07,12,16,37,23.80
2007,07,12,16,38,23.80
2007,07,12,16,39,23.80
2007,07,12,16,40,23.70
2007,07,12,16,41,23.50
2007,07,12,16,42,23.40
2007,07,12,16,43,23.30
2007,07,12,16,44,23.30
2007,07,12,16,45,23.20
2007,07,12,16,46,23.00
2007,07,12,16,47,22.90
2007,07,12,16,48,22.80
2007,07,12,16,49,22.70
2007,07,12,16,50,22.60
2007,07,12,16,51,22.50
2007,07,12,16,52,22.40
2007,07,12,16,53,22.40
2007,07,12,16,54,22.40
2007,07,12,16,55,22.40
2007,07,12,16,56,22.40
2007,07,12,16,57,22.30
2007,07,12,16,58,22.40
2007,07,12,16,59,22.50
2007,07,12,17,00,22.70
2007,07,12,17,01,22.80
2007,07,12,17,02,22.90
2007,07,12,17,03,23.00
2007,07,12,17,04,23.10
2007,07,12,17,05,23.20
2007,07,12,17,06,23.30
2007,07,12,17,07,23.40
2007,07,12,17,08,23.50
2007,07,12,17,09,23.60
2007,07,12,17,10,23.70
2007,07,12,17,11,23.80
2007,07,12,17,12,23.90
2007,07,12,17,13,23.90
2007,07,12,17,14,23.90
2007,07,12,17,15,23.90
2007,07,12,17,16,24.00
2007,07,12,17,17,24.10
2007,07,12,17,18,24.10
2007,07,12,17,19,24.10